Location: Allie Creek
(37.5926°N, 89.8526°W)
Time: 01:19:33
(UTC+00:00)

USA 81 - Pass Details

Date: 22 April 2024
Orbit: 784 x 786 km, 85.0° (Epoch: 24 May)

Event Time Altitude Azimuth Distance (km) Brightness Sun altitude
Exits shadow 03:27:06 72° 336° (NNW) 826 4.1 -28.8°
Drops below altitude 10° 03:31:54 10° 2° (N) 2,352 7.0 -29.5°
Sets 03:34:16 0° 3° (N) 3,285 7.9 -29.8°
